This demonstration page uses our WeatherBlox Daily Observations layout. Learn more.

Left ArrowRight Arrow

Hourly Observations for January 27, 2022

Temp ( °F °C ) Dew Point ( °F °C ) Humidity (%) Winds ( mph kmh ) Pressure ( in mb ) Visibility ( mi km ) Precip ( " mm )
12:53 am 00:53 Clear 6 -14.4 3 -16.1 87 87 Calm 30.41 1030 10 16 0.00 0.00
1:53 am 01:53 Clear 5 -15 2 -16.7 87 87 Calm 30.38 1029 9 14 0.00 0.00
2:53 am 02:53 Clear 5 -15 2 -16.7 87 87 Calm 30.39 1029 10 16 0.00 0.00
3:53 am 03:53 Clear 4 -15.6 1 -17.2 88 88 Calm 30.37 1029 10 16 0.00 0.00
4:53 am 04:53 Clear 5 -15 2 -16.7 87 87 Calm 30.35 1028 9 14 0.00 0.00
5:53 am 05:53 Clear 6 -14.4 3 -16.1 87 87 Calm 30.36 1028 10 16 0.00 0.00
6:53 am 06:53 Partly Cloudy 7 -13.9 3 -16.1 84 84 Calm 30.36 1028 10 16 0.00 0.00
7:53 am 07:53 Cloudy 12 -11.1 9 -12.8 87 87 Calm 30.36 1028 9 14 0.00 0.00
8:53 am 08:53 Cloudy 17 -8.3 13 -10.6 84 84 Calm 30.35 1028 10 16 0.00 0.00
9:53 am 09:53 Cloudy 21 -6.1 14 -10 74 74 Calm 30.35 1028 10 16 0.00 0.00
10:53 am 10:53 Cloudy 25 -3.9 12 -11.1 58 58 Calm 30.34 1027 10 16 0.00 0.00
11:53 am 11:53 Cloudy 30 -1.1 9 -12.8 41 41 WSW 8 13 30.31 1026 10 16 0.00 0.00
12:53 pm 12:53 Cloudy 31 -0.6 20 -6.7 64 64 VRB 6 9 30.27 1025 10 16 0.00 0.00
1:53 pm 13:53 Cloudy with Light Snow 33 0.6 24 -4.4 70 70 SW 9 15 30.22 1024 4 6 0.00 0.00
2:31 pm 14:31 Mostly Cloudy 34 1.1 25 -3.9 70 70 VRB 3 6 30.21 1023 10 16 0.00 0.00
2:53 pm 14:53 Cloudy 34 1.1 24 -4.4 67 67 VRB 6 9 30.21 1023 10 16 0.00 0.00
3:53 pm 15:53 Cloudy 34 1.1 25 -3.9 70 70 VRB 6 9 30.20 1023 10 16 0.00 0.00
4:51 pm 16:51 Cloudy 36 2 23 -5 60 60 SW 6 9 30.20 1023 10 16 0.00 0.00
4:53 pm 16:53 Cloudy 35 1.7 23 -5 61 61 SW 7 11 30.20 1023 9 14 0.00 0.00
5:51 pm 17:51 Cloudy 34 1 25 -4 70 70 WSW 3 6 30.22 1023 10 16 0.00 0.00
5:53 pm 17:53 Cloudy 34 1.1 24 -4.4 67 67 VRB 5 7 30.22 1023 10 16 0.00 0.00
6:53 pm 18:53 Cloudy 34 1.1 24 -4.4 67 67 Calm 30.22 1024 10 16 0.00 0.00
7:53 pm 19:53 Cloudy 33 0.6 27 -2.8 78 78 W 6 9 30.24 1024 10 16 0.00 0.00
8:53 pm 20:53 Cloudy 32 0 27 -2.8 82 82 W 5 7 30.24 1024 10 16 0.00 0.00
9:53 pm 21:53 Cloudy 31 -0.6 25 -3.9 79 79 WNW 7 11 30.24 1024 10 16 0.00 0.00
10:00 pm 22:00 Cloudy 32 0 24 -4.4 73 73 WNW 7 11 30.24 1024 10 16 0.00 0.00
10:26 pm 22:26 Cloudy 31 -0.6 24 -4.4 76 76 W 5 7 30.24 1024 10 16 0.00 0.00
10:53 pm 22:53 Cloudy 30 -1.1 24 -4.4 79 79 Calm 30.22 1024 10 16 0.00 0.00
11:01 pm 23:01 Cloudy 31 -0.6 24 -4.4 76 76 Calm 30.24 1024 10 16 0.00 0.00
11:53 pm 23:53 Cloudy 31 -0.6 24 -4.4 76 76 W 3 6 30.22 1023 10 16 0.00 0.00

Powered by AerisWeather